Wind_Speed
20 18 18 16 15 16 16 16 16 14 14 13 12 11 12 12 14 17 23 22 18 17 16 18 23 19 20 18 19 23 14 16 22 20 24 19 22 3 15 6 5 7 14 19 20
20 18 17 16 16 16 16 14 15 14 14 12 12 11 10 10 14 24 27 22 19 26 20 16 25 26 25 24 23 18 13 21 17 15 14 8 29 12 13 8 10 15 4 18 24
21 18 17 16 16 15 15 15 14 14 14 13 12 10 8 6 13 25 8 21 24 22 19 16 21 29 30 26 28 24 16 18 15 12 1 10 23 24 1 9 7 3 13 6 15
21 18 16 17 16 15 15 14 14 13 14 13 12 10 7 5 4 4 5 9 19 21 18 20 24 31 28 26 30 23 26 28 24 4 3 3 14 20 20 12 9 10 5 4 11
19 18 17 17 17 17 15 15 15 13 14 13 12 10 6 11 23 10 9 3 12 23 24 27 26 31 26 27 29 26 24 30 30 9 4 6 12 11 26 23 14 12 14 12 2
18 18 18 17 16 17 17 16 15 13 15 14 13 10 9 19 13 16 8 9 10 23 27 29 30 30 30 29 27 29 29 28 28 20 12 11 14 13 23 25 27 16 14 20 14
19 20 19 18 17 17 17 16 16 14 16 15 13 10 16 27 8 8 12 14 13 23 28 29 27 26 30 26 32 31 24 14 14 13 8 17 20 21 23 22 26 17 19 19 17
19 20 19 20 18 17 17 16 15 13 16 17 10 6 14 11 14 14 13 11 14 22 27 24 27 28 29 28 29 26 14 17 24 21 17 10 16 20 25 26 20 20 26 31 21
20 20 20 20 18 17 17 14 13 12 14 9 5 11 13 4 19 20 18 15 14 18 23 23 25 32 29 23 20 21 13 12 26 23 16 15 13 22 33 35 16 22 27 33 23
19 21 22 20 20 17 13 9 9 7 2 4 9 7 20 16 17 20 18 16 18 20 24 26 24 20 21 19 18 25 21 23 33 23 19 15 18 17 23 23 16 21 30 23 20
21 20 24 23 19 17 15 9 5 5 13 14 15 15 5 16 15 21 20 17 21 23 18 28 17 22 27 24 25 24 21 25 23 15 20 19 16 13 17 17 21 20 21 25 24
22 20 22 24 20 23 17 11 20 4 14 27 30 29 21 9 18 22 22 21 26 20 21 17 20 24 22 26 27 28 26 23 20 20 18 15 14 13 16 16 29 19 14 18 32
22 20 22 23 24 25 17 22 16 15 10 19 33 28 19 13 22 24 26 24 26 24 24 17 20 21 25 28 26 23 25 22 14 12 14 9 14 13 14 22 28 20 17 15 12
21 21 23 24 17 9 12 12 13 7 6 15 28 22 26 19 16 25 28 23 18 24 24 20 22 25 23 21 20 22 24 22 20 16 12 17 13 18 16 18 19 32 29 22 16
23 23 23 24 22 16 9 1 10 7 4 15 27 13 24 28 19 27 30 25 21 19 19 21 21 24 20 23 22 22 23 11 15 13 16 20 14 10 20 16 17 12 16 19 17
28 24 28 27 15 3 3 5 13 6 7 5 19 20 24 25 24 29 31 24 22 18 21 22 21 21 23 21 21 21 14 16 17 11 12 19 15 14 17 21 20 18 12 11 9
32 29 29 22 13 9 11 13 4 6 7 16 23 26 25 21 23 24 25 22 17 18 16 18 21 19 18 19 15 15 11 8 9 10 13 18 16 14 12 23 22 19 17 12 6
33 26 17 18 15 15 18 4 8 13 4 10 16 23 23 24 23 23 23 21 23 21 15 16 13 22 15 16 21 22 18 11 17 11 16 18 17 15 12 24 26 26 24 21 17
32 17 10 11 17 21 15 5 3 6 7 10 12 23 19 21 18 21 22 23 22 22 17 17 12 18 17 18 16 19 18 20 11 14 10 11 13 13 19 19 24 24 24 23 16
30 20 15 16 22 23 5 5 6 2 9 7 9 18 23 25 22 25 22 23 22 21 19 9 9 18 15 14 17 17 13 16 9 16 4 4 14 11 18 19 20 18 19 14 11
18 9 4 19 24 16 5 7 5 1 4 4 12 10 17 23 23 22 23 20 24 22 17 11 10 14 13 13 19 10 13 13 14 11 10 4 5 8 16 15 15 17 20 17 10
11 7 14 22 10 8 12 15 7 5 15 8 8 14 12 20 18 20 22 21 30 20 20 12 6 13 16 16 16 16 14 11 7 12 7 5 8 3 4 10 11 18 18 15 9
14 17 10 23 6 12 16 18 8 11 7 6 7 9 10 10 9 17 17 8 26 12 12 12 1 8 7 9 15 10 13 11 12 4 9 6 1 9 11 14 15 12 8 8 10
9 4 3 15 21 15 8 4 5 14 11 8 5 14 11 9 11 14 8 8 2 11 9 5 3 9 7 6 9 16 16 8 5 2 7 11 15 18 6 12 10 10 10 7 11
6 5 7 1 8 10 5 6 16 6 10 14 6 14 12 5 17 9 12 10 8 5 3 3 4 2 3 5 8 8 10 12 10 6 9 13 7 9 6 8 2 3 3 6 10
10 8 13 22 21 10 3 5 19 6 3 6 7 7 12 16 11 17 12 14 12 6 7 4 3 6 1 6 1 4 7 10 10 10 6 10 14 21 22 7 2 3 4 2 7
19 19 11 12 12 8 3 4 8 6 12 10 10 10 11 6 12 13 29 18 12 13 9 6 4 3 3 10 8 11 14 11 10 9 11 10 1 6 9 5 2 4 2 4 6
Wind_Direction
332 331 320 314 312 309 305 306 308 308 308 308 313 306 292 283 269 261 248 228 221 224 192 198 219 221 229 237 238 244 242 242 246 230 256 357 315 207 247 326 325 310 76 125 142
330 325 321 316 308 305 302 295 301 304 307 305 308 310 305 293 281 265 240 226 205 216 212 205 210 213 224 228 230 239 239 238 243 274 235 326 296 285 226 230 246 265 86 127 130
329 324 320 316 315 306 299 296 294 297 302 304 302 306 309 299 288 263 241 218 215 215 212 217 215 209 218 221 224 219 243 246 246 27 78 193 302 331 275 244 224 71 31 52 175
326 324 321 318 315 311 302 291 288 290 298 301 301 299 296 251 254 115 50 180 203 208 212 211 217 224 213 220 221 225 220 250 266 98 17 300 328 319 325 257 2 357 352 300 267
325 322 320 318 314 310 304 295 284 287 294 297 299 288 279 242 246 272 304 304 192 203 204 202 215 217 222 217 220 230 226 230 249 153 233 306 294 304 301 321 337 310 317 306 202
323 320 317 316 313 309 306 297 290 286 287 294 296 275 258 261 248 232 237 224 228 200 203 205 209 211 226 224 222 222 234 228 236 261 217 260 286 297 282 311 314 284 287 286 284
328 325 321 316 311 308 304 298 290 283 286 293 289 261 261 246 214 215 212 222 221 208 201 206 211 212 218 228 225 229 233 224 235 262 226 261 266 250 270 284 292 327 292 283 272
327 327 324 319 314 309 305 297 295 289 288 286 274 239 255 255 239 222 217 233 221 212 205 205 211 227 221 229 220 227 205 254 220 203 235 176 253 274 267 250 274 281 291 286 262
325 323 324 320 315 310 304 303 301 296 290 256 207 220 261 269 216 220 216 214 195 193 200 203 207 226 221 222 220 214 227 198 272 220 185 181 230 257 253 243 252 262 282 277 260
318 321 319 320 314 307 308 328 303 328 349 167 237 239 250 225 209 198 195 194 182 185 193 204 206 218 225 213 219 206 189 243 223 211 200 185 235 250 260 234 231 251 288 271 296
318 316 321 319 313 307 301 305 246 239 206 217 201 219 174 211 179 186 177 177 179 188 191 196 206 208 216 224 228 214 206 222 235 193 185 211 223 235 228 223 214 248 267 271 266
318 312 318 318 313 304 286 231 232 336 282 248 244 247 273 185 174 183 177 175 179 190 196 191 213 210 212 221 223 215 215 227 232 187 198 200 231 240 255 221 218 217 266 269 254
314 314 316 317 316 304 270 250 254 294 285 276 218 224 217 213 188 181 186 185 181 189 200 195 200 219 211 225 215 222 235 236 235 175 184 215 234 234 229 248 219 219 253 273 203
316 317 317 318 322 323 283 281 241 238 275 240 184 217 221 201 227 183 189 180 193 194 194 207 207 213 210 222 217 219 228 241 213 191 218 198 243 208 212 219 204 221 202 186 209
321 318 314 309 294 280 271 304 184 182 256 186 175 188 195 195 177 176 190 192 197 191 192 213 208 198 217 213 209 231 219 221 241 216 212 207 219 240 188 209 212 219 207 190 167
322 315 311 304 287 277 270 149 144 230 236 193 161 180 186 198 196 171 196 208 208 208 200 216 216 211 203 217 223 228 233 195 234 230 211 239 204 234 193 197 200 210 147 111 120
322 311 298 274 243 232 169 148 208 246 155 156 169 169 185 191 197 171 192 206 207 198 200 217 214 218 193 213 203 216 210 208 202 227 239 227 212 235 188 182 191 185 141 143 164
319 317 295 262 179 161 171 187 241 223 311 292 185 180 186 187 196 174 189 200 214 207 190 207 215 188 189 208 200 201 207 217 199 211 229 232 215 230 136 181 161 139 149 169 168
324 323 261 213 171 179 160 227 240 341 336 332 243 190 189 194 180 176 196 205 203 205 221 206 206 185 192 219 216 191 220 236 305 295 254 234 99 100 124 128 142 148 149 161 164
325 313 260 199 172 162 193 259 258 344 342 334 295 192 204 186 205 181 196 206 203 215 225 239 213 193 176 210 232 227 210 228 216 253 346 222 155 167 164 157 151 154 154 138 153
331 285 246 189 174 187 223 233 231 73 236 284 295 282 233 192 196 181 190 200 217 212 219 220 255 204 173 197 218 190 232 254 244 246 230 158 330 295 166 166 167 150 152 149 166
322 278 183 172 195 221 239 239 210 206 193 241 276 275 292 283 209 179 200 208 202 206 212 158 318 167 203 189 230 236 226 233 244 253 306 77 132 79 84 127 160 164 159 156 151
310 285 206 186 227 233 242 251 186 193 198 189 258 236 311 283 226 210 206 332 204 187 212 140 341 188 176 315 229 233 235 253 223 345 256 251 270 283 164 155 160 222 130 191 179
298 290 214 227 239 263 318 250 260 194 218 180 241 251 278 258 259 225 126 191 251 111 51 79 174 174 203 187 237 213 238 227 123 119 267 251 152 191 143 135 163 201 188 219 153
273 307 359 333 312 296 346 346 248 237 215 190 212 228 238 255 228 168 176 168 214 71 94 122 206 175 138 81 288 265 243 235 239 267 196 256 2 331 80 288 130 95 333 305 303
344 336 326 300 279 276 167 158 291 193 251 199 238 291 225 235 212 173 168 170 172 157 164 129 147 71 98 224 243 154 214 248 254 237 315 284 266 179 193 112 69 235 177 259 273
330 325 328 293 303 312 341 293 279 200 218 226 212 252 247 248 301 298 155 193 181 166 172 120 94 74 279 281 231 227 228 223 229 233 215 227 263 87 89 103 179 224 227 232 245
Height
1501 1498 1496 1494 1491 1490 1488 1485 1484 1481 1479 1478 1476 1475 1474 1473 1473 1472 1468 1470 1474 1477 1481 1487 1492 1495 1497 1497 1495 1493 1491 1489 1480 1477 1468 1466 1467 1468 1467 1467 1468 1465 1467 1474 1478
1499 1497 1494 1491 1489 1488 1485 1483 1481 1480 1478 1476 1474 1473 1473 1472 1470 1466 1461 1464 1468 1472 1478 1483 1487 1492 1493 1494 1493 1492 1487 1481 1472 1469 1466 1478 1479 1475 1466 1470 1470 1467 1473 1479 1476
1497 1494 1491 1488 1485 1483 1482 1480 1479 1477 1476 1474 1473 1472 1472 1472 1473 1454 1455 1459 1465 1470 1476 1482 1486 1487 1488 1488 1488 1487 1489 1477 1470 1476 1473 1484 1481 1480 1470 1470 1471 1469 1473 1476 1481
1495 1491 1489 1487 1484 1480 1478 1477 1476 1475 1474 1472 1471 1471 1471 1472 1462 1453 1454 1457 1462 1467 1472 1478 1481 1480 1481 1481 1483 1483 1484 1480 1474 1478 1483 1487 1489 1487 1479 1473 1475 1474 1474 1478 1482
1493 1489 1487 1484 1483 1479 1476 1474 1473 1472 1471 1470 1469 1469 1469 1468 1457 1454 1454 1456 1459 1463 1467 1473 1475 1476 1473 1477 1479 1477 1477 1478 1477 1482 1485 1490 1490 1493 1486 1480 1480 1478 1476 1476 1481
1490 1487 1484 1481 1479 1477 1474 1472 1470 1469 1469 1468 1467 1467 1467 1463 1450 1454 1455 1453 1456 1459 1464 1469 1469 1473 1475 1473 1472 1475 1474 1473 1474 1477 1483 1489 1491 1495 1490 1488 1485 1483 1481 1477 1477
1488 1485 1482 1479 1476 1474 1471 1469 1467 1466 1466 1465 1464 1464 1464 1450 1445 1451 1453 1453 1455 1456 1461 1465 1469 1470 1472 1469 1470 1471 1472 1471 1475 1479 1483 1490 1490 1491 1493 1493 1489 1484 1483 1481 1477
1486 1483 1480 1476 1473 1471 1468 1466 1464 1463 1462 1462 1462 1464 1454 1442 1444 1444 1449 1451 1453 1455 1460 1465 1469 1468 1467 1468 1468 1468 1471 1481 1471 1478 1484 1490 1496 1486 1490 1493 1490 1488 1487 1484 1481
1484 1480 1477 1473 1470 1467 1466 1464 1463 1460 1459 1459 1462 1463 1447 1437 1438 1441 1446 1448 1451 1455 1460 1464 1467 1466 1466 1463 1463 1461 1477 1490 1486 1466 1476 1488 1494 1490 1490 1488 1490 1489 1487 1483 1481
1481 1478 1474 1470 1466 1464 1463 1463 1461 1459 1457 1459 1460 1463 1439 1431 1434 1438 1442 1445 1449 1454 1459 1459 1461 1461 1457 1456 1462 1461 1472 1479 1480 1461 1467 1487 1488 1483 1481 1484 1485 1487 1486 1481 1479
1478 1475 1471 1468 1464 1461 1460 1463 1464 1461 1456 1447 1439 1432 1426 1427 1431 1434 1437 1442 1447 1451 1450 1450 1454 1454 1450 1449 1450 1468 1464 1468 1457 1454 1469 1475 1474 1478 1476 1480 1483 1484 1484 1479 1481
1475 1471 1467 1464 1461 1458 1456 1458 1452 1455 1445 1436 1434 1432 1428 1428 1429 1431 1436 1439 1443 1447 1446 1449 1448 1444 1445 1446 1446 1446 1451 1451 1445 1454 1467 1467 1473 1472 1474 1475 1476 1479 1480 1481 1475
1470 1467 1464 1460 1456 1451 1448 1446 1449 1453 1446 1423 1423 1426 1425 1426 1425 1427 1433 1433 1434 1439 1441 1443 1442 1442 1444 1441 1440 1443 1447 1443 1443 1444 1454 1464 1472 1472 1472 1473 1473 1474 1477 1477 1479
1466 1464 1460 1457 1455 1452 1449 1447 1447 1454 1443 1407 1411 1418 1421 1424 1420 1423 1429 1430 1432 1433 1435 1436 1436 1437 1436 1436 1435 1445 1435 1434 1441 1446 1466 1460 1479 1461 1464 1466 1466 1469 1472 1476 1479
1462 1460 1456 1452 1449 1448 1450 1447 1447 1453 1434 1382 1399 1405 1412 1415 1410 1418 1425 1424 1426 1424 1429 1432 1427 1432 1433 1433 1432 1437 1429 1434 1438 1442 1450 1451 1466 1443 1452 1463 1461 1461 1465 1468 1473
1457 1453 1450 1446 1444 1440 1447 1447 1450 1447 1421 1387 1390 1398 1405 1407 1407 1415 1420 1421 1421 1420 1421 1421 1419 1420 1427 1426 1428 1428 1435 1435 1439 1441 1461 1447 1449 1448 1442 1449 1458 1461 1464 1466 1471
1449 1445 1441 1440 1439 1440 1443 1447 1449 1431 1382 1386 1390 1391 1396 1400 1400 1408 1415 1417 1417 1425 1422 1419 1415 1414 1418 1424 1425 1428 1439 1457 1462 1460 1460 1433 1442 1436 1421 1434 1446 1456 1462 1466 1472
1440 1435 1431 1427 1433 1438 1441 1447 1434 1399 1398 1389 1384 1389 1392 1393 1393 1403 1411 1415 1410 1410 1414 1424 1430 1410 1413 1419 1425 1427 1436 1446 1463 1458 1445 1424 1437 1424 1413 1429 1443 1455 1463 1469 1474
1433 1430 1429 1427 1431 1435 1441 1439 1423 1410 1412 1407 1386 1386 1385 1385 1387 1398 1405 1406 1403 1402 1410 1412 1416 1404 1410 1411 1414 1423 1430 1420 1437 1448 1447 1423 1430 1428 1428 1437 1444 1452 1459 1465 1470
1430 1426 1424 1424 1431 1434 1438 1431 1419 1421 1418 1416 1406 1378 1383 1382 1385 1392 1400 1397 1398 1396 1395 1403 1414 1406 1406 1414 1413 1413 1418 1438 1437 1461 1472 1435 1434 1439 1434 1438 1444 1452 1459 1465 1470
1431 1425 1423 1423 1429 1432 1427 1425 1416 1420 1424 1423 1408 1397 1376 1376 1377 1387 1392 1392 1393 1394 1395 1406 1409 1420 1408 1416 1417 1417 1435 1421 1419 1419 1441 1472 1479 1423 1431 1436 1442 1448 1457 1465 1469
1431 1422 1421 1423 1425 1420 1416 1408 1413 1417 1422 1422 1419 1411 1402 1386 1378 1383 1387 1386 1388 1389 1396 1399 1410 1415 1414 1409 1410 1408 1414 1415 1429 1433 1423 1446 1456 1451 1429 1438 1445 1451 1457 1461 1467
1435 1422 1419 1421 1419 1413 1406 1405 1409 1414 1416 1420 1416 1410 1404 1399 1400 1381 1380 1388 1384 1386 1393 1399 1418 1429 1428 1430 1410 1414 1413 1411 1422 1423 1433 1443 1472 1442 1437 1444 1454 1456 1460 1462 1466
1439 1415 1417 1419 1412 1408 1410 1410 1409 1407 1409 1413 1413 1410 1411 1407 1395 1386 1388 1392 1391 1394 1402 1400 1411 1422 1441 1430 1419 1424 1417 1415 1427 1449 1443 1435 1451 1443 1439 1444 1452 1454 1457 1461 1465
1438 1428 1427 1425 1420 1414 1413 1413 1408 1404 1404 1404 1406 1407 1407 1408 1397 1391 1392 1396 1397 1402 1403 1405 1418 1420 1427 1437 1429 1419 1421 1420 1430 1430 1450 1441 1444 1447 1451 1450 1450 1454 1457 1461 1463
1444 1437 1433 1426 1413 1408 1409 1411 1406 1404 1407 1402 1404 1401 1404 1409 1395 1392 1397 1397 1400 1405 1406 1410 1425 1429 1435 1427 1429 1432 1431 1430 1431 1433 1440 1444 1453 1450 1445 1447 1452 1456 1458 1463 1466
1448 1444 1439 1424 1409 1405 1405 1409 1401 1400 1398 1397 1400 1401 1396 1397 1399 1395 1389 1396 1398 1404 1409 1418 1438 1443 1448 1442 1432 1440 1426 1425 1427 1427 1432 1439 1435 1434 1443 1449 1454 1456 1458 1461 1464